• In Uzbekistan
  • List of Countries
  • For 7 days
  • Water Temperature
  • Satellite Maps
  • Weather Map
  • Weather Widgets
  • user-avatar
    Login

    Hourly Weather Nakhchivan

    Today, 26 July, Wednesday

    Time Temperature Precipitation Wind Pressure Humidity
    00:00 +28°C° 0 mm 2 mps 683 mmHg 46%
    01:00 +28°C° 0 mm 2 mps 683 mmHg 47%
    02:00 +27°C° 0 mm 2 mps 683 mmHg 48%
    03:00 +27°C° 0 mm 2 mps 683 mmHg 49%
    04:00 +27°C° 0 mm 2 mps 683 mmHg 48%
    05:00 +27°C° 0 mm 1 mps 684 mmHg 47%
    06:00 +27°C° 0 mm 1 mps 684 mmHg 47%
    07:00 +29°C° 0 mm 1 mps 684 mmHg 42%
    08:00 +30°C° 0 mm 1 mps 684 mmHg 37%
    09:00 +32°C° 0 mm 1 mps 684 mmHg 32%
    10:00 +34°C° 0 mm 2 mps 684 mmHg 28%
    11:00 +35°C° 0 mm 2 mps 684 mmHg 25%
    12:00 +36°C° 0 mm 2 mps 684 mmHg 21%
    13:00 +37°C° 0 mm 2 mps 684 mmHg 20%
    14:00 +38°C° 0 mm 3 mps 684 mmHg 18%
    15:00 +38°C° 0 mm 3 mps 683 mmHg 17%
    16:00 +38°C° 0 mm 3 mps 683 mmHg 18%
    17:00 +37°C° 0 mm 4 mps 683 mmHg 18%
    18:00 +37°C° 0 mm 4 mps 683 mmHg 19%
    19:00 +35°C° 0 mm 3 mps 684 mmHg 24%
    20:00 +34°C° 0 mm 3 mps 684 mmHg 28%
    21:00 +31°C° 0 mm 2 mps 684 mmHg 33%
    22:00 +30°C° 0 mm 2 mps 684 mmHg 35%
    23:00 +29°C° 0 mm 2 mps 685 mmHg 38%

    Tomorrow, 27 July, Thursday

    Time Temperature Precipitation Wind Pressure Humidity
    00:00 +29°C° 0 mm 2 mps 685 mmHg 40%
    01:00 +28°C° 0 mm 2 mps 685 mmHg 41%
    02:00 +28°C° 0 mm 2 mps 685 mmHg 42%
    03:00 +27°C° 0 mm 2 mps 685 mmHg 43%
    04:00 +27°C° 0 mm 2 mps 685 mmHg 42%
    05:00 +27°C° 0 mm 1 mps 686 mmHg 42%
    06:00 +28°C° 0 mm 1 mps 686 mmHg 41%
    07:00 +29°C° 0 mm 1 mps 686 mmHg 36%
    08:00 +31°C° 0 mm 2 mps 686 mmHg 32%
    09:00 +32°C° 0 mm 2 mps 686 mmHg 27%
    10:00 +35°C° 0 mm 2 mps 686 mmHg 24%
    11:00 +36°C° 0 mm 2 mps 686 mmHg 22%
    12:00 +37°C° 0 mm 2 mps 686 mmHg 19%
    13:00 +38°C° 0 mm 3 mps 686 mmHg 18%
    14:00 +39°C° 0 mm 3 mps 686 mmHg 17%
    15:00 +40°C° 0 mm 3 mps 685 mmHg 16%
    16:00 +40°C° 0 mm 4 mps 685 mmHg 17%
    17:00 +40°C° 0 mm 4 mps 685 mmHg 18%
    18:00 +38°C° 0 mm 4 mps 685 mmHg 19%
    19:00 +36°C° 0 mm 4 mps 685 mmHg 22%
    20:00 +35°C° 0 mm 3 mps 685 mmHg 26%
    21:00 +32°C° 0 mm 2 mps 686 mmHg 30%
    22:00 +31°C° 0 mm 2 mps 686 mmHg 32%
    23:00 +30°C° 0 mm 2 mps 686 mmHg 34%

    Day after tomorrow, 28 July, Friday

    Time Temperature Precipitation Wind Pressure Humidity
    00:00 +30°C° 0 mm 2 mps 686 mmHg 36%
    01:00 +29°C° 0 mm 2 mps 686 mmHg 37%
    02:00 +28°C° 0 mm 2 mps 686 mmHg 38%
    03:00 +28°C° 0 mm 1 mps 686 mmHg 39%
    04:00 +28°C° 0 mm 1 mps 686 mmHg 38%
    05:00 +28°C° 0 mm 1 mps 686 mmHg 37%
    06:00 +29°C° 0 mm 1 mps 687 mmHg 37%
    07:00 +31°C° 0 mm 1 mps 687 mmHg 32%
    08:00 +33°C° 0 mm 1 mps 687 mmHg 28%
    09:00 +34°C° 0 mm 1 mps 687 mmHg 23%
    10:00 +36°C° 0 mm 1 mps 687 mmHg 21%
    11:00 +38°C° 0 mm 2 mps 687 mmHg 18%
    12:00 +40°C° 0 mm 2 mps 687 mmHg 16%
    13:00 +42°C° 0 mm 3 mps 686 mmHg 15%
    14:00 +43°C° 0 mm 3 mps 686 mmHg 13%
    15:00 +44°C° 0 mm 3 mps 686 mmHg 12%
    16:00 +43°C° 0 mm 3 mps 686 mmHg 12%
    17:00 +43°C° 0 mm 3 mps 686 mmHg 12%
    18:00 +42°C° 0 mm 3 mps 686 mmHg 12%
    19:00 +40°C° 0 mm 3 mps 686 mmHg 15%
    20:00 +38°C° 0 mm 3 mps 686 mmHg 18%
    21:00 +36°C° 0 mm 3 mps 687 mmHg 20%
    22:00 +35°C° 0 mm 3 mps 687 mmHg 22%
    23:00 +34°C° 0 mm 2 mps 687 mmHg 23%

    29 July, Saturday

    Time Temperature Precipitation Wind Pressure Humidity
    00:00 +32°C° 0 mm 2 mps 687 mmHg 24%
    01:00 +31°C° 0 mm 2 mps 687 mmHg 25%
    02:00 +30°C° 0 mm 2 mps 687 mmHg 26%
    03:00 +30°C° 0 mm 2 mps 686 mmHg 27%
    04:00 +30°C° 0 mm 2 mps 687 mmHg 26%
    05:00 +30°C° 0 mm 1 mps 687 mmHg 26%
    06:00 +30°C° 0 mm 1 mps 687 mmHg 26%
    07:00 +32°C° 0 mm 1 mps 687 mmHg 22%
    08:00 +34°C° 0 mm 1 mps 688 mmHg 19%
    09:00 +36°C° 0 mm 1 mps 688 mmHg 15%
    10:00 +38°C° 0 mm 2 mps 688 mmHg 14%
    11:00 +39°C° 0 mm 2 mps 688 mmHg 12%
    12:00 +41°C° 0 mm 2 mps 687 mmHg 10%
    13:00 +42°C° 0 mm 3 mps 687 mmHg 10%
    14:00 +43°C° 0 mm 3 mps 687 mmHg 9%
    15:00 +44°C° 0 mm 3 mps 687 mmHg 9%
    16:00 +43°C° 0 mm 3 mps 687 mmHg 9%
    17:00 +43°C° 0 mm 3 mps 687 mmHg 10%
    18:00 +42°C° 0 mm 3 mps 687 mmHg 10%
    19:00 +39°C° 0 mm 3 mps 687 mmHg 12%
    20:00 +38°C° 0 mm 2 mps 687 mmHg 14%
    21:00 +36°C° 0 mm 2 mps 688 mmHg 17%
    22:00 +35°C° 0 mm 2 mps 688 mmHg 19%
    23:00 +34°C° 0 mm 2 mps 688 mmHg 22%

    30 July, Sunday

    Time Temperature Precipitation Wind Pressure Humidity
    00:00 +33°C° 0 mm 3 mps 688 mmHg 24%
    01:00 +31°C° 0 mm 3 mps 688 mmHg 27%
    02:00 +31°C° 0 mm 3 mps 688 mmHg 29%
    03:00 +30°C° 0 mm 2 mps 688 mmHg 32%
    04:00 +29°C° 0 mm 2 mps 688 mmHg 33%
    05:00 +29°C° 0 mm 2 mps 688 mmHg 35%
    06:00 +29°C° 0 mm 2 mps 689 mmHg 37%
    07:00 +31°C° 0 mm 2 mps 689 mmHg 33%
    08:00 +32°C° 0 mm 2 mps 689 mmHg 30%
    09:00 +35°C° 0 mm 2 mps 689 mmHg 26%
    10:00 +36°C° 0 mm 2 mps 689 mmHg 24%
    11:00 +37°C° 0 mm 2 mps 688 mmHg 21%
    12:00 +38°C° 0 mm 2 mps 688 mmHg 19%
    13:00 +39°C° 0 mm 3 mps 688 mmHg 17%
    14:00 +41°C° 0 mm 4 mps 687 mmHg 16%
    15:00 +42°C° 0 mm 4 mps 687 mmHg 15%
    16:00 +41°C° 0 mm 4 mps 687 mmHg 17%
    17:00 +41°C° 0 mm 5 mps 687 mmHg 19%
    18:00 +40°C° 0 mm 5 mps 687 mmHg 21%
    19:00 +37°C° 0 mm 5 mps 687 mmHg 27%
    20:00 +35°C° 0 mm 4 mps 688 mmHg 33%
    21:00 +34°C° 0 mm 4 mps 688 mmHg 38%
    22:00 +33°C° 0 mm 3 mps 688 mmHg 42%
    23:00 +31°C° 0 mm 3 mps 689 mmHg 45%

    31 July, Monday

    Time Temperature Precipitation Wind Pressure Humidity
    00:00 +30°C° 0 mm 3 mps 689 mmHg 48%
    01:00 +29°C° 0 mm 3 mps 689 mmHg 49%
    02:00 +29°C° 0 mm 2 mps 689 mmHg 51%
    03:00 +28°C° 0 mm 2 mps 689 mmHg 52%
    04:00 +28°C° 0 mm 2 mps 689 mmHg 52%
    05:00 +28°C° 0 mm 2 mps 690 mmHg 51%
    06:00 +28°C° 0 mm 2 mps 690 mmHg 51%
    07:00 +29°C° 0 mm 3 mps 690 mmHg 45%
    08:00 +31°C° 0 mm 3 mps 690 mmHg 40%
    09:00 +33°C° 0 mm 3 mps 691 mmHg 34%
    10:00 +35°C° 0 mm 3 mps 690 mmHg 31%
    11:00 +36°C° 0 mm 4 mps 690 mmHg 27%
    12:00 +37°C° 0 mm 4 mps 690 mmHg 24%
    13:00 +38°C° 0 mm 4 mps 690 mmHg 22%
    14:00 +40°C° 0 mm 5 mps 690 mmHg 21%
    15:00 +41°C° 0 mm 5 mps 689 mmHg 19%
    16:00 +40°C° 0 mm 5 mps 689 mmHg 21%
    17:00 +39°C° 0 mm 5 mps 689 mmHg 22%
    18:00 +38°C° 0 mm 6 mps 689 mmHg 23%
    19:00 +36°C° 0 mm 5 mps 690 mmHg 27%
    20:00 +34°C° 0 mm 4 mps 690 mmHg 31%
    21:00 +31°C° 0 mm 3 mps 690 mmHg 35%
    22:00 +30°C° 0 mm 3 mps 690 mmHg 37%
    23:00 +29°C° 0 mm 3 mps 691 mmHg 39%
    Show more